Skip Page Navigation
NASA JPL Caltech
NASA Logo - Jet Propulsion Laboratory + View the NASA Portal
+ Center for Near-Earth Object Studies
JPL Home Earth Solar System Stars & Galaxies Technology
JPL Solar System Dynamics
BODIES ORBITS EPHEMERIDES TOOLS PHYSICAL DATA DISCOVERY FAQ SITE MAP
JPL Small-Body Database Browser
Search: [ help ]  
175568 (2006 TT17)
Classification: Main-belt Asteroid          SPK-ID: 2175568
Ephemeris | Orbit Diagram | Orbital Elements | Mission Design | Physical Parameters | Discovery Circumstances | Close-Approach Data ]

[ show orbit diagram ]
Orbital Elements at Epoch 2459200.5 (2020-Dec-17.0) TDB
Reference: JPL 15 (heliocentric ecliptic J2000)
 Element Value Uncertainty (1-sigma)   Units 
e .06427717569692069 5.4531e-08  
a 2.910696352939127 2.3503e-08 au
q 2.723605012060872 1.6773e-07 au
i 3.0528007506968 5.4302e-06 deg
node 95.14183387412784 8.383e-05 deg
peri 198.3579531083271 9.2073e-05 deg
M 37.63891617501028 3.5316e-05 deg
tp 2459010.860680615276
(2020-Jun-10.36068062)
0.00017846 TDB
period 1813.818300746594
4.97
2.1969e-05
6.015e-08
d
yr
n .198476330210043 2.4039e-09 deg/d
Q 3.097787693817381 2.5014e-08 au
  Orbit Determination Parameters
   # obs. used (total)      312  
   data-arc span      7872 days (21.55 yr)  
   first obs. used      1999-03-21  
   last obs. used      2020-10-08  
   planetary ephem.      DE431  
   SB-pert. ephem.      SB431-N16  
   condition code      0  
   norm. resid. RMS      .52079  
   source      ORB  
   producer      Otto Matic  
   solution date      2020-Nov-12 09:58:15  

Additional Information
 Earth MOID = 1.70571 au 
 Jupiter MOID = 2.01374 au 
 T_jup = 3.278 
[ show covariance matrix ]

Ephemeris | Orbit Diagram | Orbital Elements | Mission Design | Physical Parameters | Discovery Circumstances | Close-Approach Data ]

Physical Parameter Table
Parameter Symbol Value Units Sigma Reference Notes
absolute magnitude H 16.23   n/a E2021B55  

175568 (2006 TT17)          Discovered 2006-Oct-11 by Spacewatch at Kitt Peak
Reference: 20080122/Numbers.arcLast Updated: 2008-01-28

[ show close-approach data ]
Alternate Designations
 2006 TT17 = 2005 MK54 
Ephemeris | Orbit Diagram | Orbital Elements | Mission Design | Physical Parameters | Discovery Circumstances | Close-Approach Data ]
ABOUT SSD CREDITS/AWARDS PRIVACY/COPYRIGHT GLOSSARY LINKS
FirstGov 2021-Apr-13 08:37 UT
(server date/time)  
NASA Home Page
Site Manager:   Ryan S. Park
Webmaster  Alan B. Chamberlin